Home > Weather > Entebbe > Past weeks

Flag for Uganda Past Weather in Entebbe, Uganda — Yesterday and Last 2 Weeks

Now
73 °F

Passing clouds.


Feels Like: 73 °F
Forecast: 66 / 77 °F
Wind: 6 mph from South

Location: Entebbe Airport

Current Time: May 27, 2016 at 9:25:01 PM

Latest Report: May 27, 2016 at 9:00 PM


Visibility: 6 mi

Pressure: 30.07 "Hg (26.30 "Hg at 1160m altitude)

Humidity: 83%

Dew Point: 68 °F

Location of EntebbeLocation

Past Weather in Entebbe — Graph

°F

Entebbe Temperature Yesterday

Maximum temperature yesterday: 79 °F (at 2:00 PM)
Minimum temperature yesterday: 68 °F (at 7:00 AM)
Average temperature yesterday: 74 °F

High & Low Weather Summary for the Past Weeks

 TemperatureHumidityPressure
High82 °F (May 25, 12:00 PM)100% (May 15, 9:00 AM)30.18 "Hg (May 15, 9:00 AM)
Low68 °F (May 13, 10:00 AM)55% (May 25, 12:00 PM)30.01 "Hg (May 13, 4:00 PM)
Average74 °F82%30.10 "Hg
* Reported May 12 8:00 PM — May 27 8:00 PM, Entebbe, Weather by CustomWeather, © 2016

Note: Actual official high and low records may vary slightly from our data, if they occured in-between our weather recording intervals... More about our weather records

Advertising

Entebbe Weather History for the Previous 24 Hours

Scroll right to see more
 ConditionsComfort  
Time TempWeatherWind HumidityBarometerVisibility
8:00 PM
Fri, May 27
73 °FPassing clouds.6 mph78%30.07 "Hg6 mi
7:00 PM75 °FPassing clouds.8 mph78%30.07 "Hg6 mi
6:00 PM77 °FPassing clouds.3 mph74%30.04 "Hg6 mi
5:00 PM77 °FPassing clouds.9 mph74%30.04 "Hg6 mi
4:00 PM79 °FPassing clouds.12 mph61%30.07 "Hg6 mi
3:00 PM79 °FPassing clouds.9 mph70%30.09 "Hg6 mi
2:00 PM77 °FPartly sunny.6 mph74%30.09 "Hg6 mi
1:00 PM79 °FPartly sunny.9 mph74%30.12 "Hg6 mi
12:00 PM79 °FScattered clouds.3 mph70%30.15 "Hg5 mi
11:00 AM77 °FBroken clouds.6 mph69%30.15 "Hg5 mi
10:00 AM73 °FBroken clouds.6 mph83%30.15 "Hg5 mi
9:00 AM73 °FScattered clouds.7 mph78%30.12 "Hg4 mi
8:00 AM70 °FPartly sunny.6 mph88%30.07 "HgN/A
7:00 AM68 °FScattered clouds.6 mph88%30.07 "Hg6 mi
6:00 AM68 °FPassing clouds.6 mph94%30.07 "Hg5 mi
5:00 AM70 °FPassing clouds.5 mph88%30.07 "Hg6 mi
4:00 AM72 °FPassing clouds.3 mph83%30.07 "Hg6 mi
3:00 AM70 °FPassing clouds.5 mph94%30.07 "HgN/A
2:00 AM70 °FPassing clouds.2 mph94%30.09 "HgN/A
1:00 AM72 °FMild.No wind88%30.12 "HgN/A
12:00 AM73 °FMild.1 mph78%30.12 "HgN/A
11:00 PM
Thu, May 26
73 °FPassing clouds.2 mph83%30.12 "HgN/A
10:00 PM73 °FPassing clouds.2 mph78%30.09 "HgN/A
9:00 PM75 °FPassing clouds.6 mph69%30.09 "HgN/A
Weather by CustomWeather, © 2016

See weather overviewHow to use our weather pages